Find Starlink 32225

NORAD ID: 62036 Int'l Des: 2024-216 Owner: SPXS Country: US Constellation: starlink operational
LEOCIRCULAR

当前视图

正在加载3D地球...

About Starlink 32225

Starlink 32225 (NORAD 62036) is a starlink constellation satellite (v2 mini) launched Nov 21, 2024 by SPXS of US. It operates in LEO, CIRCULAR orbit with a mass of 730.00 kg.

即将过境

Passes for default location (London). Set your location on the main map for personalized predictions.

高度历史

Loading altitude history...

两行轨道根数

1 62036U 24216E 26263.27930575 .00009187 00000-0 34283-3 0 9997
2 62036 43.0000 237.5546 0001410 266.6847 93.3844 15.27590396103702
Epoch: Sep 20, 2026 • Age: 29 hours

当前状态

高度 482.7 km
远地点 / 近地点 N/A
速度 7.63 km/s
星下点 18.42°N, 144.64°W
发射日期 Nov 21, 2024
运行时间 1.8 years
类型 internet

技术详情

分类 Payload
质量 730.00 kg
干质量 700.00 kg
长度 0.30 m
跨度 29.00 m
形状 ? Box + pan
制造商 SPXS
平台类型 Starlink V2M
阶段状态 In Orbit
所有者/国家 SPXS/US

Most Searched